Location: Newark
(34.1333°N, 7.9667°W)
Time: 11:55:48
(UTC+00:00)

Envisat - Pass Details

Date: 30 September 2021
Orbit: 764 x 766 km, 98.2° (Epoch: 20 October)

Event Time Altitude Azimuth Distance (km) Brightness Sun altitude
Rises 04:15:37 0° 39° (NE) 3,232 7.0 -27.4°
Reaches altitude 10° 04:19:37 10° 70° (ENE) 2,300 6.5 -26.7°
Maximum altitude 04:21:26 12° 91° (E) 2,172 6.2 -26.3°
Drops below altitude 10° 04:23:14 10° 113° (ESE) 2,295 6.1 -25.9°
Sets 04:27:12 0° 144° (SE) 3,214 6.5 -25.1°
